CZ-4 DEB, 26142

Orbit data source: Space-Track

CZ-4 DEB, 26142 is space debris in SSO originally from a launch on Thu, 14 Oct 1999 UTC launched from the Taiyaun Space Center, China (TSC). Debris objects in space refer to the collection of defunct objects orbiting the Earth. Examples of debris include non-operational satellites, rocket bodies, and fragments generated from explosions, collisions, or faulty payload assembly.

Loading next visibility...
CZ-4 DEB details
Identifier
26142, 1999-057AE
Orbit
SSO
Last TLE update1 day ago
Origin
Flag of CNCNSA (CN / PRC)
ManufacturerUnknown
MissionSpacecraft
Bus & MotorUnknown
MassUnknown
Launch date (UTC)
1999-10-14 (25 years ago)
Launch vehicleUnknown
Launch site
Taiyaun Space Center, China (TSC)
Object type
Payload
Rocket body
Debris
Shape & HBRUnknown
Radar Cross SectionSmall (<0.1 m²)

Expand to show TLE details & history

TLE from 1 day ago
0 CZ-4 DEB
1 26142U 99057AE  24355.51571464  .00000721  00000-0  45753-3 0  9994
2 26142  98.7816 259.2282 0299032 182.4643 352.2463 13.86896216249021
Epoch: 2024-12-20T12:22Z
Definitive object data (Epoch: 2024-12-20T12:22:37.744Z)
Latitude5.62029°
Longitude164.85717°
Altitude725.107 km
Speed7.603 km/s
True Right ascension05h 20m 22s
True Declination5° 35' 12"
Sunlit
Object was in full shadow at TLE epoch
Visualization TLE readout
Latitude42.88397°
Longitude173.20632°
Altitude782.654 km
Speed7.549 km/s
Apparent Right ascension03h 38m 51s
Apparent Declination5° 21' 51"
Sunlit
Object is in full shadow
Visualization observer readout
Local Sidereal Time13:12:39
Azimuth314.609° NW
Elevation-33.604°
Doppler factor1
Orbital elements
Apogee altitude1,155.469 km
Perigee altitude717.993 km
Semi-major axis7,314.868 km
Eccentricity0.0299032
Inclination98.7816°
RAAN259.2282°
Arg. of periapsis182.4643°
True anomaly351.76625°
Mean anomaly352.2463°
Eccentric anomaly352.00809°
Mean motion3.46923 °/min
BSTAR0.00045753
Orbital period103.77 mins
Loading maneuver chart data...
Loading historical data...
Loading historical data...
Loading historical data...
Loading historical data...
Loading historical data...
Loading historical data...
Loading historical data...

CZ-4 DEB Visibility forecast

Observer location: undefined°, undefined

Span
Click to sort rows by Start time (UTC) header in descending order
Start Az.
Max El. time (UTC)
Max El. Az.
Max El.
End time (UTC)
End Az.
11 mins2024-12-21 17:05:34.292Z138.947° SSE2024-12-21 17:11:34.292Z61.308° ENE36.711°2024-12-21 17:16:34.292Z0.854° NNE
9 mins2024-12-21 18:49:34.292Z214.867° SW2024-12-21 18:53:34.292Z260.717° W26.735°2024-12-21 18:58:34.292Z318.99° NNW
6 mins2024-12-22 05:44:34.292Z58.477° ENE2024-12-22 05:46:34.292Z89.345° E21.218°2024-12-22 05:50:34.292Z145.221° SSE
7 mins2024-12-22 07:26:34.292Z346.091° N2024-12-22 07:29:34.292Z290.451° WNW30.845°2024-12-22 07:33:34.292Z228.185° WSW
|